CW2157 Weather Reports


time (UTC)temp
F
wind
direction
speed
knots
gust
knots
rain 1hr
in
rain 24hr
in
rain mn
in
humidity
%
barometer
mb
20260906055706 67 43 1.7 2.6 0.00 0.00 0.00 89 1010.2
20260906055205 67 40 0.9 2.6 0.00 0.00 0.00 90 1010.2
20260906054705 67 5 0.9 1.7 0.00 0.00 0.00 90 1010.3
20260906054206 67 53 0.0 0.0 0.00 0.00 0.00 90 1010.3
20260906053705 67 54 0.0 0.0 0.00 0.00 0.00 90 1010.3
20260906053205 67 102 0.0 0.0 0.00 0.00 0.00 89 1010.4
20260906052706 67 102 0.0 0.0 0.00 0.00 0.00 89 1010.4
20260906051205 67 102 0.0 0.9 0.00 0.00 0.00 88 1010.5
20260906050705 67 102 0.0 1.7 0.00 0.00 0.00 88 1010.5
20260906045706 67 102 0.0 0.0 0.00 0.00 0.00 88 1010.5
20260906045205 68 102 0.0 0.0 0.00 0.00 0.00 88 1010.6
20260906044705 68 102 0.0 0.9 0.00 0.00 0.00 88 1010.6
20260906044206 68 102 0.0 0.9 0.00 0.00 0.00 89 1010.5
20260906043705 68 102 0.0 0.9 0.00 0.00 0.00 89 1010.5
20260906043205 68 102 0.0 0.9 0.00 0.00 0.00 89 1010.6
20260906042705 68 102 0.0 0.9 0.00 0.00 0.00 89 1010.6
20260906042206 68 102 0.0 0.0 0.00 0.00 0.00 88 1010.5
20260906041205 68 102 0.0 0.9 0.00 0.00 0.00 89 1010.5
20260906040705 69 102 0.0 0.9 0.00 0.00 0.00 89 1010.6
20260906035705 69 102 0.0 0.0 0.00 0.00 0.00 89 1010.7
20260906035206 69 102 0.0 0.0 0.00 0.00 0.00 89 1010.7
20260906034705 69 102 0.0 0.9 0.00 0.00 0.00 89 1010.8
20260906034205 69 102 0.0 0.9 0.00 0.00 0.00 88 1010.7
20260906033705 69 102 0.0 0.9 0.00 0.00 0.00 87 1010.7
20260906033205 69 102 0.0 0.9 0.00 0.00 0.00 87 1010.7
20260906032705 69 102 0.0 0.9 0.00 0.00 0.00 87 1010.7
20260906032205 69 102 0.9 0.9 0.00 0.00 0.00 87 1010.7
20260906031705 69 102 0.0 0.9 0.00 0.00 0.00 87 1010.7
20260906031206 69 102 0.0 0.0 0.00 0.00 0.00 86 1010.8
20260906030706 69 102 0.0 0.0 0.00 0.00 0.00 86 1010.8
20260906030205 69 102 0.0 0.0 0.00 0.00 0.00 86 1010.8
20260906025705 70 102 0.0 0.0 0.00 0.00 0.00 86 1010.7
20260906025205 70 102 0.0 0.0 0.00 0.00 0.00 88 1010.6
20260906024706 70 102 0.0 0.0 0.00 0.00 0.00 88 1010.5
20260906024205 70 102 0.0 0.0 0.00 0.00 0.00 88 1010.7
20260906023705 70 102 0.0 0.9 0.00 0.00 0.00 88 1010.7
20260906022705 70 102 0.0 0.0 0.00 0.00 0.00 87 1010.7
20260906022205 70 102 0.0 0.0 0.00 0.00 0.00 86 1010.6
20260906020705 71 102 0.0 0.9 0.00 0.00 0.00 85 1010.6
20260906020205 71 102 0.0 0.0 0.00 0.00 0.00 85 1010.5
20260906015205 71 102 0.0 0.0 0.00 0.00 0.00 84 1010.4
20260906014705 71 102 0.0 0.0 0.00 0.00 0.00 83 1010.4
20260906014205 71 102 0.0 0.9 0.00 0.00 0.00 82 1010.4
20260906013705 71 102 0.9 0.9 0.00 0.00 0.00 82 1010.2
20260906013205 71 102 0.0 0.9 0.00 0.00 0.00 81 1010.1
20260906012205 72 102 0.0 0.0 0.00 0.00 0.00 80 1010.0
20260906011705 72 102 0.0 0.0 0.00 0.00 0.00 80 1009.9
20260906011206 72 102 0.0 0.0 0.00 0.00 0.00 80 1009.9
20260906010206 72 102 0.0 0.0 0.00 0.00 0.00 79 1009.9
20260906005705 72 102 0.0 0.0 0.00 0.00 0.00 78 1009.9
20260906005206 73 102 0.0 0.9 0.00 0.00 0.00 78 1009.8
20260906004705 73 102 0.0 0.9 0.00 0.00 0.00 78 1009.8
20260906004205 73 102 0.0 0.0 0.00 0.00 0.00 77 1009.8
20260906003705 73 102 0.0 0.0 0.00 0.00 0.00 77 1009.8
20260906003206 73 102 0.0 0.0 0.00 0.00 0.00 77 1009.8
20260906002705 73 102 0.0 0.0 0.00 0.00 0.00 77 1009.7
20260906002206 74 102 0.0 0.9 0.00 0.00 0.00 76 1009.6
20260906001705 74 102 0.0 0.9 0.00 0.00 0.00 76 1009.6
20260906001205 74 102 0.0 0.9 0.00 0.00 0.00 76 1009.5
20260906000705 74 102 0.0 0.9 0.00 0.00 0.00 75 1009.4
20260906000205 74 102 0.0 0.0 0.00 0.00 0.00 75 1009.4
20260905235705 75 102 0.0 0.0 0.00 0.00 0.00 75 1009.4
20260905235205 75 102 0.0 0.0 0.00 0.00 0.00 75 1009.4
20260905234706 75 102 0.0 0.0 0.00 0.00 0.00 75 1009.4
20260905233705 76 102 0.0 0.0 0.00 0.00 0.00 73 1009.2
20260905233205 76 103 0.0 0.0 0.00 0.00 0.00 73 1009.1
20260905232705 76 103 0.0 0.0 0.00 0.00 0.00 73 1009.2
20260905232205 77 103 0.0 0.9 0.00 0.00 0.00 71 1009.1
20260905231205 77 1 0.0 0.9 0.00 0.00 0.00 70 1009.1
20260905230705 77 1 0.0 0.0 0.00 0.00 0.00 70 1009.1
20260905230205 78 1 0.0 0.9 0.00 0.00 0.00 71 1009.2
20260905225706 78 5 0.0 0.9 0.00 0.00 0.00 70 1009.1
20260905225205 78 19 0.0 2.6 0.00 0.00 0.00 69 1009.0
20260905222705 78 9 1.7 2.6 0.00 0.00 0.00 67 1008.7
20260905222205 78 346 0.9 1.7 0.00 0.00 0.00 66 1008.7
20260905221205 79 6 1.7 5.2 0.00 0.00 0.00 66 1008.8
20260905220705 79 5 0.0 1.7 0.00 0.00 0.00 67 1008.7
20260905220205 79 5 0.0 1.7 0.00 0.00 0.00 68 1008.7
20260905215706 79 37 0.9 2.6 0.00 0.00 0.00 68 1008.7
20260905214705 79 42 0.9 2.6 0.00 0.00 0.00 65 1008.6
20260905214205 79 43 0.9 1.7 0.00 0.00 0.00 65 1008.6
20260905213205 80 329 0.0 2.6 0.00 0.00 0.00 63 1008.7
20260905212205 80 47 1.7 5.2 0.00 0.00 0.00 63 1008.5
20260905210705 82 54 4.3 7.8 0.00 0.00 0.00 62 1008.4
20260905205705 82 25 2.6 7.0 0.00 0.00 0.00 60 1008.3
20260905205205 83 31 2.6 7.0 0.00 0.00 0.00 61 1008.3
20260905204705 83 347 1.7 5.2 0.00 0.00 0.00 59 1008.4
20260905204206 83 23 2.6 8.7 0.00 0.00 0.00 60 1008.5
20260905203705 82 69 3.5 10.4 0.00 0.00 0.00 59 1008.5
20260905203205 82 64 6.1 10.4 0.00 0.00 0.00 60 1008.5
20260905202705 82 21 4.3 7.8 0.00 0.00 0.00 62 1008.5
20260905202205 81 32 2.6 7.0 0.00 0.00 0.00 62 1008.5
20260905201705 81 45 2.6 5.2 0.00 0.00 0.00 63 1008.4
20260905200705 81 8 2.6 7.8 0.00 0.00 0.00 61 1008.4
20260905200205 81 49 3.5 8.7 0.00 0.00 0.00 61 1008.4
20260905195205 81 55 4.3 8.7 0.00 0.00 0.00 62 1008.3
20260905194705 81 354 3.5 7.0 0.00 0.00 0.00 62 1008.3
20260905194205 81 18 2.6 7.0 0.00 0.00 0.00 61 1008.3
20260905193705 81 6 1.7 7.8 0.00 0.00 0.00 57 1008.3
20260905192705 82 351 5.2 7.8 0.00 0.00 0.00 62 1008.5
20260905192205 82 4 5.2 7.8 0.00 0.00 0.00 65 1008.5
20260905191705 82 72 6.1 10.4 0.00 0.00 0.00 66 1008.6
20260905191205 82 76 2.6 7.0 0.00 0.00 0.00 63 1008.8
20260905190705 82 83 2.6 6.1 0.00 0.00 0.00 62 1009.0
20260905190205 82 57 5.2 10.4 0.00 0.00 0.00 63 1009.0
20260905185705 82 41 3.5 7.8 0.00 0.00 0.00 67 1009.1
20260905185205 82 1 2.6 5.2 0.00 0.00 0.00 65 1009.3
20260905184705 82 22 2.6 7.0 0.00 0.00 0.00 63 1009.3
20260905184205 82 34 2.6 5.2 0.00 0.00 0.00 66 1009.3
20260905183705 82 36 1.7 4.3 0.00 0.00 0.00 64 1009.4
20260905183205 82 65 2.6 6.1 0.00 0.00 0.00 63 1009.5
20260905182205 83 60 1.7 5.2 0.00 0.00 0.00 65 1009.7
20260905181205 82 12 1.7 2.6 0.00 0.00 0.00 63 1009.9
20260905180705 82 8 1.7 2.6 0.00 0.00 0.00 66 1009.9
20260905175705 81 295 0.0 2.6 0.00 0.00 0.00 66 1010.0
20260905174705 81 2 0.0 2.6 0.00 0.00 0.00 66 1010.0
20260905174205 81 301 0.9 2.6 0.00 0.00 0.00 65 1010.0
20260905173705 81 311 1.7 4.3 0.00 0.00 0.00 67 1010.1
20260905172705 81 3 0.9 4.3 0.00 0.00 0.00 67 1010.0
20260905172205 81 12 3.5 5.2 0.00 0.00 0.00 64 1010.0
20260905171705 81 11 2.6 6.1 0.00 0.00 0.00 63 1010.0
20260905171205 81 3 1.7 5.2 0.00 0.00 0.00 63 1010.0
20260905170705 81 19 2.6 7.0 0.00 0.00 0.00 63 1009.9
20260905170205 81 30 3.5 7.0 0.00 0.00 0.00 66 1010.0
20260905165705 81 352 3.5 7.8 0.00 0.00 0.00 67 1010.0
20260905165205 81 37 2.6 7.8 0.00 0.00 0.00 65 1010.0
20260905164705 81 0 2.6 5.2 0.00 0.00 0.00 65 1010.0
20260905164205 81 21 2.6 7.8 0.00 0.00 0.00 65 1010.0
20260905163705 81 48 3.5 7.0 0.00 0.00 0.00 67 1010.0
20260905162705 81 337 3.5 7.0 0.00 0.00 0.00 63 1010.3
20260905161705 81 344 3.5 7.0 0.00 0.00 0.00 63 1010.4
20260905161205 82 350 3.5 7.0 0.00 0.00 0.00 63 1010.5
20260905160705 81 347 2.6 7.0 0.00 0.00 0.00 66 1010.4
20260905160205 81 7 2.6 7.0 0.00 0.00 0.00 68 1010.4
20260905155705 81 58 2.6 5.2 0.00 0.00 0.00 65 1010.4
20260905155205 81 338 2.6 7.8 0.00 0.00 0.00 65 1010.3
20260905154705 81 39 2.6 6.1 0.00 0.00 0.00 66 1010.4
20260905154205 81 55 3.5 6.1 0.00 0.00 0.00 67 1010.4
20260905153705 81 46 2.6 10.4 0.00 0.00 0.00 64 1010.3
20260905153205 81 13 2.6 7.0 0.00 0.00 0.00 63 1010.4
20260905152205 82 29 2.6 5.2 0.00 0.00 0.00 67 1010.4
20260905151705 82 16 2.6 7.8 0.00 0.00 0.00 63 1010.5
20260905151205 82 16 1.7 6.1 0.00 0.00 0.00 67 1010.4
20260905150705 82 25 0.9 2.6 0.00 0.00 0.00 66 1010.5
20260905150204 82 24 3.5 7.8 0.00 0.00 0.00 66 1010.6
20260905145704 82 22 1.7 7.8 0.00 0.00 0.00 62 1010.5
20260905145204 82 64 4.3 7.8 0.00 0.00 0.00 64 1010.5
20260905144705 82 54 4.3 11.3 0.00 0.00 0.00 63 1010.4
20260905143705 82 58 5.2 8.7 0.00 0.00 0.00 68 1010.1
20260905143205 82 23 5.2 10.4 0.00 0.00 0.00 65 1010.0
20260905142705 82 52 3.5 10.4 0.00 0.00 0.00 66 1010.0
20260905141705 82 60 4.3 8.7 0.00 0.00 0.00 69 1010.2
20260905141205 82 353 3.5 8.7 0.00 0.00 0.00 69 1010.2
20260905140704 82 12 5.2 10.4 0.00 0.00 0.00 68 1010.1
20260905140205 82 50 5.2 8.7 0.00 0.00 0.00 70 1010.0
20260905135705 82 4 3.5 7.0 0.00 0.00 0.00 67 1010.1
20260905135204 81 16 4.3 10.4 0.00 0.00 0.00 70 1010.0
20260905134705 81 50 3.5 7.8 0.00 0.00 0.00 71 1010.0
20260905134205 80 23 4.3 7.8 0.00 0.00 0.00 76 1009.9
20260905133705 80 67 2.6 6.1 0.00 0.00 0.00 75 1009.9
20260905133205 79 45 2.6 7.0 0.00 0.00 0.00 76 1010.1
20260905132705 79 5 2.6 6.1 0.00 0.00 0.00 75 1010.0
20260905132205 79 45 4.3 8.7 0.00 0.00 0.00 80 1009.9
20260905131205 78 54 4.3 7.8 0.00 0.00 0.00 78 1009.7
20260905130204 78 58 2.6 5.2 0.00 0.00 0.00 77 1009.7
20260905125705 79 52 3.5 7.0 0.00 0.00 0.00 77 1009.7
20260905125205 79 54 3.5 7.8 0.00 0.00 0.00 76 1009.8
20260905124704 79 12 2.6 7.0 0.00 0.00 0.00 76 1009.6
20260905124205 79 19 4.3 8.7 0.00 0.00 0.00 78 1009.7
20260905123705 79 67 3.5 7.8 0.00 0.00 0.00 77 1009.6
20260905122705 79 30 2.6 6.1 0.00 0.00 0.00 80 1009.5
20260905122205 79 33 4.3 7.0 0.00 0.00 0.00 82 1009.6
20260905121704 78 42 4.3 7.8 0.00 0.00 0.00 82 1009.5
20260905121205 78 61 2.6 5.2 0.00 0.00 0.00 83 1009.3
20260905120705 78 56 4.3 7.8 0.00 0.00 0.00 83 1009.3
20260905120205 78 37 3.5 5.2 0.00 0.00 0.00 84 1009.5
20260905115705 78 36 3.5 7.0 0.00 0.00 0.00 86 1009.4
20260905115205 78 34 1.7 4.3 0.00 0.00 0.00 86 1009.4
20260905114704 77 13 4.3 7.8 0.00 0.00 0.00 86 1009.4
20260905114204 77 51 3.5 7.8 0.00 0.00 0.00 87 1009.3
20260905112705 76 12 1.7 4.3 0.00 0.00 0.00 87 1009.0
20260905111704 76 333 2.6 7.0 0.00 0.00 0.00 87 1009.0
20260905111205 76 0 3.5 7.0 0.00 0.00 0.00 87 1009.0
20260905110205 76 7 1.7 2.6 0.00 0.00 0.00 88 1008.9
20260905105205 76 347 1.7 4.3 0.00 0.00 0.00 87 1008.6
20260905104705 76 9 0.9 4.3 0.00 0.00 0.00 87 1008.7
20260905104204 76 357 1.7 4.3 0.00 0.00 0.00 87 1008.8
20260905103205 76 355 2.6 5.2 0.00 0.00 0.00 87 1008.8
20260905102705 76 350 1.7 2.6 0.00 0.00 0.00 87 1008.5
20260905102205 76 339 2.6 4.3 0.00 0.00 0.00 87 1008.4
20260905101705 76 0 1.7 4.3 0.00 0.00 0.00 87 1008.3
20260905101205 76 352 2.6 5.2 0.00 0.00 0.00 86 1008.3
20260905100705 76 353 1.7 4.3 0.00 0.00 0.00 86 1008.3
20260905100204 76 345 1.7 5.2 0.00 0.00 0.00 86 1008.3
20260905095705 76 0 0.9 4.3 0.00 0.00 0.00 87 1008.2
20260905095204 76 5 1.7 4.3 0.00 0.00 0.00 87 1008.1
20260905094705 76 353 1.7 4.3 0.00 0.00 0.00 87 1008.1
20260905094205 76 352 2.6 4.3 0.00 0.00 0.00 87 1008.1
20260905093205 76 6 1.7 2.6 0.00 0.00 0.00 86 1008.0
20260905092705 76 4 1.7 2.6 0.00 0.00 0.00 86 1007.9
20260905092205 76 351 1.7 2.6 0.00 0.00 0.00 86 1008.0
20260905091705 76 8 1.7 2.6 0.00 0.00 0.00 86 1008.1
20260905091204 76 353 1.7 2.6 0.00 0.00 0.00 86 1008.1
20260905090705 76 354 0.9 2.6 0.00 0.00 0.00 86 1008.1
20260905085704 76 337 0.9 2.6 0.00 0.00 0.00 85 1008.2
20260905085204 76 355 1.7 2.6 0.00 0.00 0.00 85 1008.1
20260905084705 76 328 0.9 2.6 0.00 0.00 0.00 85 1008.1
20260905084205 76 351 0.9 2.6 0.00 0.00 0.00 85 1008.1
20260905083705 76 303 1.7 2.6 0.00 0.00 0.00 85 1008.0
20260905083205 76 303 1.7 4.3 0.00 0.00 0.00 85 1008.0
20260905082704 76 313 0.9 4.3 0.00 0.00 0.00 85 1008.0
20260905082205 76 337 1.7 7.8 0.00 0.00 0.00 85 1008.1
20260905081704 76 312 3.5 7.8 0.00 0.00 0.00 85 1008.1
20260905081204 77 352 2.6 7.8 0.00 0.00 0.00 85 1008.2
20260905080705 77 347 4.3 7.8 0.00 0.00 0.00 85 1008.4
20260905080205 77 341 1.7 7.8 0.00 0.00 0.00 85 1008.4
20260905075705 77 335 1.7 5.2 0.00 0.00 0.00 85 1008.5
20260905075204 77 330 1.7 8.7 0.00 0.00 0.00 86 1008.4
20260905074704 77 356 1.7 4.3 0.00 0.00 0.00 86 1008.5
20260905073704 77 336 1.7 6.1 0.00 0.00 0.00 86 1008.5
20260905072705 77 14 1.7 4.3 0.00 0.00 0.00 85 1008.6
20260905071705 77 305 1.7 7.0 0.00 0.00 0.00 86 1008.6
20260905071204 77 297 3.5 10.4 0.00 0.00 0.00 86 1008.6
20260905070705 77 196 0.9 7.0 0.00 0.00 0.00 86 1008.6
20260905070204 77 338 2.6 7.0 0.00 0.00 0.00 86 1008.6
20260905065704 77 324 2.6 10.4 0.00 0.00 0.00 86 1008.7
20260905065205 77 224 3.5 8.7 0.00 0.00 0.00 87 1008.8
20260905064705 76 273 2.6 6.1 0.00 0.00 0.00 87 1008.8
20260905064204 76 86 0.9 4.3 0.00 0.00 0.00 87 1008.8
20260905063704 76 271 4.3 7.0 0.00 0.00 0.00 87 1008.8
20260905063204 76 18 1.7 4.3 0.00 0.00 0.00 87 1008.9
20260905062204 76 243 1.7 8.7 0.00 0.01 0.00 87 1008.9
20260905061205 76 270 2.6 6.1 0.00 0.01 0.00 88 1009.0
20260905060205 76 243 1.7 5.2 0.00 0.01 0.00 88 1009.0